DW3212 Weather Reports


time (UTC)temp
C
wind
direction
speed
KPH
gust
KPH
rain 1hr
cm
rain 24hr
cm
rain mn
cm
humidity
%
barometer
mb
20260505070058 12 0.0 0.0 0.00 0.00 0.00 57 1008.1
20260505064605 13 0.0 0.0 0.00 0.00 0.00 55 1008.1
20260505063055 13 0.0 0.0 0.00 0.00 0.00 55 1007.9
20260505061609 13 0.0 0.0 0.00 0.00 0.00 54 1007.9
20260505060104 12 0.0 0.0 0.00 0.00 0.00 55 1008.1
20260505054556 12 0.0 0.0 0.00 0.00 0.00 56 1008.2
20260505053100 12 0.0 0.0 0.00 0.00 0.00 55 1008.3
20260505051553 12 0.0 0.0 0.00 0.00 0.00 56 1008.2
20260505041603 12 0.0 0.0 0.00 0.00 0.00 56 1008.5
20260505034554 12 0.0 0.0 0.00 0.00 0.00 55 1008.5
20260505033057 12 0.0 0.0 0.00 0.00 0.00 56 1008.4
20260505031556 11 0.0 0.0 0.00 0.00 0.00 55 1008.4
20260505030112 11 0.0 0.0 0.00 0.00 0.00 55 1008.4
20260505024559 11 0.0 0.0 0.00 0.00 0.00 55 1008.6
20260505023055 12 0.0 0.0 0.00 0.00 0.00 55 1008.5
20260505021557 11 0.0 0.0 0.00 0.00 0.00 55 1008.5
20260505020100 12 0.0 0.0 0.00 0.00 0.00 54 1008.5
20260505014610 12 0.0 0.0 0.00 0.00 0.00 52 1008.4
20260505013058 12 0.0 0.0 0.00 0.00 0.00 52 1008.3
20260505011557 12 0.0 0.0 0.00 0.00 0.00 50 1008.2
20260505004557 12 0.0 0.0 0.00 0.00 0.00 51 1008.1
20260505003059 13 0.0 0.0 0.00 0.00 0.00 49 1008.0
20260505001601 13 0.0 0.0 0.00 0.00 0.00 48 1007.8
20260504234559 14 0.0 0.0 0.00 0.00 0.00 48 1007.4
20260504233106 15 0.0 0.0 0.00 0.00 0.00 47 1007.3
20260504231602 15 0.0 0.0 0.00 0.00 0.00 44 1006.9
20260504230109 15 0.0 0.0 0.00 0.00 0.00 43 1006.8
20260504224600 15 0.0 0.0 0.00 0.00 0.00 43 1006.8
20260504223117 15 0.0 0.0 0.00 0.00 0.00 42 1006.7
20260504221558 16 0.0 0.0 0.00 0.00 0.00 43 1006.6
20260504214558 16 0.0 0.0 0.00 0.00 0.00 42 1006.6
20260504213101 16 0.0 0.0 0.00 0.00 0.00 43 1006.7
20260504211651 16 0.0 0.0 0.00 0.00 0.00 42 1006.6
20260504210056 17 0.0 0.0 0.00 0.00 0.00 40 1006.7
20260504204604 16 0.0 0.0 0.00 0.00 0.00 41 1006.6
20260504203057 16 0.0 0.0 0.00 0.00 0.00 42 1006.9
20260504201611 16 0.0 0.0 0.00 0.00 0.00 41 1006.7
20260504200058 16 0.0 0.0 0.00 0.00 0.00 40 1006.7
20260504194559 16 0.0 0.0 0.00 0.00 0.00 40 1006.6
20260504193109 16 0.0 0.0 0.00 0.00 0.00 42 1006.8
20260504191610 16 0.0 0.0 0.00 0.00 0.00 42 1006.7
20260504190109 16 0.0 0.0 0.00 0.00 0.00 42 1006.8
20260504184557 15 0.0 0.0 0.00 0.00 0.00 41 1006.9
20260504183057 16 0.0 0.0 0.00 0.00 0.00 41 1006.8
20260504181603 16 0.0 0.0 0.00 0.00 0.00 41 1006.7
20260504180059 16 0.0 0.0 0.00 0.00 0.00 44 1007.1
20260504174556 16 0.0 0.0 0.00 0.00 0.00 44 1007.1
20260504173100 15 0.0 0.0 0.00 0.00 0.00 43 1007.2
20260504171601 15 0.0 0.0 0.00 0.00 0.00 43 1007.2
20260504120103 9 0.0 0.0 0.00 0.00 0.00 53 1008.6
20260504100104 5 0.0 0.0 0.00 0.00 0.00 65 1008.2
20260504081605 5 0.0 0.0 0.00 0.00 0.00 75 1008.4